GW0710 Weather Reports


time (UTC)temp
C
wind
direction
speed
KPH
gust
KPH
rain 1hr
cm
rain 24hr
cm
rain mn
cm
humidity
%
barometer
mb
20260906154559 26 136 6.4 12.9 0.00 0.00 0.00 77 1018.0
20260906153102 26 349 3.2 14.5 0.00 0.00 0.00 79 1018.0
20260906151605 26 127 4.8 12.9 0.00 0.00 0.00 78 1017.9
20260906150114 26 131 3.2 12.9 0.00 0.00 0.00 79 1017.7
20260906144602 25 109 3.2 12.9 0.00 0.00 0.00 80 1017.8
20260906143101 25 98 3.2 9.7 0.00 0.00 0.00 81 1017.8
20260906141601 25 39 4.8 11.3 0.00 0.00 0.00 82 1017.7
20260906140106 24 86 0.0 12.9 0.00 0.00 0.00 85 1017.6
20260906134559 23 71 4.8 12.9 0.00 0.00 0.00 87 1017.6
20260906133124 23 127 3.2 12.9 0.00 0.00 0.00 90 1017.3
20260906131604 23 98 4.8 12.9 0.00 0.00 0.00 91 1017.3
20260906130119 23 94 3.2 11.3 0.00 0.00 0.00 91 1017.3
20260906124603 22 0 3.2 14.5 0.00 0.00 0.00 91 1017.1
20260906123059 22 102 3.2 9.7 0.00 0.00 0.00 91 1017.0
20260906121556 22 0 0.0 4.8 0.00 0.00 0.00 91 1017.1
20260906120103 22 142 1.6 6.4 0.00 0.00 0.00 90 1017.0
20260906114602 22 85 1.6 12.9 0.00 0.00 0.00 90 1017.0
20260906113100 22 127 0.0 4.8 0.00 0.00 0.00 91 1017.0
20260906111611 22 83 0.0 3.2 0.00 0.00 0.00 91 1016.9
20260906110100 23 144 1.6 8.0 0.00 0.00 0.00 91 1016.7
20260906104557 23 92 1.6 9.7 0.00 0.00 0.00 91 1016.3
20260906103100 23 82 1.6 6.4 0.00 0.00 0.00 91 1016.2
20260906101601 23 120 1.6 9.7 0.00 0.00 0.00 91 1016.2
20260906100059 23 99 3.2 6.4 0.00 0.00 0.00 90 1016.0
20260906094556 23 148 3.2 9.7 0.00 0.00 0.00 90 1016.0
20260906093104 23 122 1.6 9.7 0.00 0.00 0.00 90 1015.8
20260906091602 24 0 3.2 12.9 0.00 0.00 0.00 90 1015.7
20260906090101 24 80 4.8 14.5 0.00 0.00 0.00 90 1015.6
20260906084557 24 308 3.2 12.9 0.00 0.00 0.00 90 1015.4
20260906083100 25 155 3.2 9.7 0.00 0.00 0.00 90 1015.4
20260906081600 25 146 3.2 14.5 0.00 0.00 0.00 89 1015.4
20260906080107 25 0 1.6 9.7 0.00 0.00 0.00 90 1015.6
20260906074559 25 0 1.6 9.7 0.00 0.00 0.00 90 1015.4
20260906073103 25 34 3.2 12.9 0.00 0.00 0.00 90 1015.5
20260906071604 25 0 1.6 9.7 0.00 0.00 0.00 90 1015.4
20260906070059 25 82 1.6 6.4 0.00 0.00 0.00 89 1015.3
20260906064601 26 94 1.6 8.0 0.00 0.00 0.00 89 1015.3
20260906063100 26 0 0.0 6.4 0.00 0.00 0.00 88 1015.4
20260906061611 26 0 0.0 3.2 0.00 0.00 0.00 87 1015.5
20260906060107 26 117 0.0 3.2 0.00 0.00 0.00 86 1015.5
20260906054608 26 0 0.0 4.8 0.00 0.00 0.00 85 1015.6
20260906053101 26 0 0.0 1.6 0.00 0.00 0.00 85 1015.4
20260906051613 27 0 0.0 1.6 0.00 0.00 0.00 84 1015.3
20260906050105 27 0 0.0 1.6 0.00 0.00 0.00 84 1015.2
20260906044607 27 0 0.0 1.6 0.00 0.00 0.00 82 1015.1
20260906043106 27 0 0.0 1.6 0.00 0.00 0.00 82 1014.9
20260906041601 27 95 0.0 1.6 0.00 0.00 0.00 81 1014.7
20260906040139 27 0 0.0 3.2 0.00 0.00 0.00 80 1014.5
20260906034620 28 0 0.0 4.8 0.00 0.00 0.00 79 1014.5
20260906033108 28 0 1.6 6.4 0.00 0.00 0.00 78 1014.2
20260906031602 28 0 0.0 4.8 0.00 0.00 0.00 77 1014.1
20260906030104 28 94 0.0 3.2 0.00 0.00 0.00 76 1014.1
20260906024615 29 131 0.0 4.8 0.00 0.00 0.00 75 1014.0
20260906023134 29 99 0.0 4.8 0.00 0.00 0.00 74 1014.0
20260906021600 30 0 0.0 3.2 0.00 0.00 0.00 72 1013.8
20260906020057 30 0 0.0 3.2 0.00 0.00 0.00 71 1013.6
20260906014603 30 0 0.0 1.6 0.00 0.00 0.00 69 1013.4
20260906013109 30 0 0.0 3.2 0.00 0.00 0.00 68 1013.1
20260906011601 31 226 0.0 3.2 0.00 0.00 0.00 66 1013.1
20260906010059 31 0 0.0 4.8 0.00 0.00 0.00 63 1012.9
20260906004604 32 84 0.0 3.2 0.00 0.00 0.00 59 1012.8
20260906003104 33 0 0.0 4.8 0.00 0.00 0.00 56 1012.7
20260906001609 33 308 0.0 3.2 0.00 0.00 0.00 53 1012.8
20260906000058 34 0 0.0 6.4 0.00 0.00 0.00 51 1012.7
20260905234606 35 37 1.6 6.4 0.00 0.00 0.00 50 1012.7
20260905233104 35 338 1.6 8.0 0.00 0.00 0.00 48 1012.8
20260905231605 35 49 3.2 9.7 0.00 0.00 0.00 46 1012.6
20260905230106 36 32 1.6 8.0 0.00 0.00 0.00 45 1012.4
20260905224619 36 59 4.8 14.5 0.00 0.00 0.00 44 1012.4
20260905223116 36 355 4.8 14.5 0.00 0.00 0.00 42 1012.4
20260905221604 36 333 3.2 9.7 0.00 0.00 0.00 43 1012.5
20260905220108 35 269 4.8 14.5 0.00 0.00 0.00 45 1012.5
20260905214604 35 306 6.4 16.1 0.00 0.00 0.00 45 1012.5
20260905213103 35 355 3.2 14.5 0.00 0.00 0.00 44 1012.7
20260905211603 36 306 4.8 12.9 0.00 0.00 0.00 45 1012.8
20260905210107 35 286 4.8 17.7 0.00 0.00 0.00 45 1013.0
20260905204556 36 277 3.2 12.9 0.00 0.00 0.00 43 1013.2
20260905203101 36 273 6.4 14.5 0.00 0.00 0.00 46 1013.2
20260905201605 35 218 4.8 12.9 0.00 0.00 0.00 46 1013.4
20260905200106 35 292 4.8 12.9 0.00 0.00 0.00 46 1013.6
20260905194556 35 293 4.8 11.3 0.00 0.00 0.00 46 1013.8
20260905193058 36 295 3.2 16.1 0.00 0.00 0.00 45 1013.9
20260905191614 36 298 3.2 14.5 0.00 0.00 0.00 45 1014.0
20260905190129 36 307 4.8 12.9 0.00 0.00 0.00 45 1014.1
20260905184609 35 304 11.3 17.7 0.00 0.00 0.00 45 1014.2
20260905183103 36 277 6.4 17.7 0.00 0.00 0.00 45 1014.3
20260905181608 35 301 4.8 16.1 0.00 0.00 0.00 48 1014.3
20260905180107 35 281 6.4 17.7 0.00 0.00 0.00 47 1014.3
20260905174603 35 296 6.4 14.5 0.00 0.00 0.00 47 1014.6
20260905173131 35 269 3.2 14.5 0.00 0.00 0.00 48 1014.7
20260905171602 34 286 6.4 16.1 0.00 0.00 0.00 50 1015.1
20260905170116 35 313 3.2 12.9 0.00 0.00 0.00 49 1015.2
20260905164609 35 174 1.6 14.5 0.00 0.00 0.00 51 1015.4
20260905163124 34 302 1.6 12.9 0.00 0.00 0.00 52 1015.3
20260905161616 33 255 4.8 11.3 0.00 0.00 0.00 54 1015.1
20260905160120 33 292 3.2 9.7 0.00 0.00 0.00 61 1015.0